Time,TemperatureF,DewpointF,PressureIn,WindDirection,WindDirectionDegrees,WindSpeedMPH,WindSpeedGustMPH,Humidity,HourlyPrecipIn,Conditions,Clouds,dailyrainin,SoftwareType,DateUTC
2013-02-20 00:05:00,35.0,28.0,-100.00,NNE,25,6.0,8.0,75,-99.99,,,-99.99,,2013-02-20 08:05:00,
2013-02-20 00:11:00,35.0,28.0,-100.00,NNE,25,6.0,8.0,75,-99.99,,,-99.99,,2013-02-20 08:11:00,
2013-02-20 01:01:00,34.0,28.0,-100.00,SSW,205,6.0,7.0,78,-99.99,,,-99.99,,2013-02-20 09:01:00,
2013-02-20 01:11:00,34.0,28.0,-100.00,SSW,205,6.0,7.0,78,-99.99,,,-99.99,,2013-02-20 09:11:00,
2013-02-20 02:01:00,36.0,29.0,-100.00,North,8,2.0,3.0,75,-99.99,,,-99.99,,2013-02-20 10:01:00,
2013-02-20 02:12:00,36.0,29.0,-100.00,North,8,2.0,3.0,75,-99.99,,,-99.99,,2013-02-20 10:12:00,
2013-02-20 03:02:00,32.0,28.0,-100.00,North,1,5.0,7.0,84,-99.99,,,-99.99,,2013-02-20 11:02:00,
2013-02-20 03:11:00,32.0,28.0,-100.00,North,1,5.0,7.0,84,-99.99,,,-99.99,,2013-02-20 11:11:00,
2013-02-20 04:01:00,28.0,25.0,-100.00,North,10,3.0,5.0,88,-99.99,,,-99.99,,2013-02-20 12:01:00,
2013-02-20 04:12:00,28.0,25.0,-100.00,North,10,3.0,5.0,88,-99.99,,,-99.99,,2013-02-20 12:12:00,
2013-02-20 05:01:00,26.0,23.0,-100.00,NE,42,3.0,3.0,88,-99.99,,,-99.99,,2013-02-20 13:01:00,
2013-02-20 05:11:00,26.0,23.0,-100.00,NE,42,3.0,3.0,88,-99.99,,,-99.99,,2013-02-20 13:11:00,
2013-02-20 06:01:00,24.0,21.0,-100.00,NW,306,2.0,3.0,88,-99.99,,,-99.99,,2013-02-20 14:01:00,
2013-02-20 06:11:00,24.0,21.0,-100.00,NW,306,2.0,3.0,88,-99.99,,,-99.99,,2013-02-20 14:11:00,
2013-02-20 07:01:00,24.0,21.0,-100.00,NW,315,2.0,3.0,88,-99.99,,,-99.99,,2013-02-20 15:01:00,
2013-02-20 07:11:00,24.0,21.0,-100.00,NW,315,2.0,3.0,88,-99.99,,,-99.99,,2013-02-20 15:11:00,
2013-02-20 08:01:00,25.0,22.0,-100.00,WNW,295,2.0,3.0,88,-99.99,,,-99.99,,2013-02-20 16:01:00,
2013-02-20 08:11:00,25.0,22.0,-100.00,WNW,295,2.0,3.0,88,-99.99,,,-99.99,,2013-02-20 16:11:00,
2013-02-20 10:02:00,37.0,30.0,-100.00,SSE,147,5.0,7.0,75,-99.99,,,-99.99,,2013-02-20 18:02:00,
2013-02-20 10:11:00,37.0,30.0,-100.00,SSE,147,5.0,7.0,75,-99.99,,,-99.99,,2013-02-20 18:11:00,
2013-02-20 11:01:00,42.0,30.0,-100.00,SE,137,6.0,9.0,62,-99.99,,,-99.99,,2013-02-20 19:01:00,
2013-02-20 11:11:00,42.0,30.0,-100.00,SE,137,6.0,9.0,62,-99.99,,,-99.99,,2013-02-20 19:11:00,
2013-02-20 12:01:00,45.0,27.0,-100.00,SSE,152,9.0,13.0,49,-99.99,,,-99.99,,2013-02-20 20:01:00,
2013-02-20 12:11:00,45.0,27.0,-100.00,SSE,152,9.0,13.0,49,-99.99,,,-99.99,,2013-02-20 20:11:00,
2013-02-20 13:01:00,48.0,29.0,-100.00,SSE,152,10.0,16.0,47,-99.99,,,-99.99,,2013-02-20 21:01:00,
2013-02-20 13:11:00,48.0,29.0,-100.00,SSE,152,10.0,16.0,47,-99.99,,,-99.99,,2013-02-20 21:11:00,
2013-02-20 13:52:00,49.0,31.0,-100.00,SE,142,10.0,15.0,49,-99.99,,,-99.99,,2013-02-20 21:52:00,
2013-02-20 14:01:00,49.0,31.0,-100.00,SE,142,10.0,15.0,49,-99.99,,,-99.99,,2013-02-20 22:01:00,
2013-02-20 14:11:00,49.0,31.0,-100.00,SE,142,10.0,15.0,49,-99.99,,,-99.99,,2013-02-20 22:11:00,
2013-02-20 15:01:00,50.0,29.0,-100.00,SSE,167,6.0,10.0,44,-99.99,,,-99.99,,2013-02-20 23:01:00,
2013-02-20 15:12:00,50.0,29.0,-100.00,SSE,167,6.0,10.0,44,-99.99,,,-99.99,,2013-02-20 23:12:00,
2013-02-20 16:02:00,51.0,28.0,-100.00,SSW,200,9.0,17.0,40,-99.99,,,-99.99,,2013-02-21 00:02:00,
2013-02-20 16:11:00,51.0,28.0,-100.00,SSW,200,9.0,17.0,40,-99.99,,,-99.99,,2013-02-21 00:11:00,
2013-02-20 17:01:00,48.0,27.0,-100.00,SSW,204,5.0,6.0,43,-99.99,,,-99.99,,2013-02-21 01:01:00,
2013-02-20 17:11:00,48.0,27.0,-100.00,SSW,204,5.0,6.0,43,-99.99,,,-99.99,,2013-02-21 01:11:00,
2013-02-20 18:01:00,45.0,28.0,-100.00,SSW,202,3.0,3.0,51,-99.99,,,-99.99,,2013-02-21 02:01:00,
2013-02-20 18:11:00,45.0,28.0,-100.00,SSW,202,3.0,3.0,51,-99.99,,,-99.99,,2013-02-21 02:11:00,
2013-02-20 19:01:00,44.0,28.0,-100.00,WNW,284,3.0,3.0,53,-99.99,,,-99.99,,2013-02-21 03:01:00,
2013-02-20 19:12:00,44.0,28.0,-100.00,WNW,284,3.0,3.0,53,-99.99,,,-99.99,,2013-02-21 03:12:00,
2013-02-20 20:01:00,43.0,29.0,-100.00,ENE,77,2.0,3.0,57,-99.99,,,-99.99,,2013-02-21 04:01:00,
2013-02-20 20:11:00,43.0,29.0,-100.00,ENE,77,2.0,3.0,57,-99.99,,,-99.99,,2013-02-21 04:11:00,
2013-02-20 20:52:00,37.0,28.0,-100.00,SSW,200,3.0,5.0,69,-99.99,,,-99.99,,2013-02-21 04:52:00,
2013-02-20 21:02:00,37.0,28.0,-100.00,SSW,200,3.0,5.0,69,-99.99,,,-99.99,,2013-02-21 05:02:00,
2013-02-20 21:12:00,37.0,28.0,-100.00,SSW,200,3.0,5.0,69,-99.99,,,-99.99,,2013-02-21 05:12:00,
2013-02-20 21:59:00,38.0,29.0,-100.00,East,88,2.0,3.0,69,-99.99,,,-99.99,,2013-02-21 05:59:00,
2013-02-20 22:11:00,38.0,29.0,-100.00,East,88,2.0,3.0,69,-99.99,,,-99.99,,2013-02-21 06:11:00,
2013-02-20 23:01:00,34.0,28.0,-100.00,ESE,120,5.0,7.0,78,-99.99,,,-99.99,,2013-02-21 07:01:00,
2013-02-20 23:11:00,34.0,28.0,-100.00,ESE,120,5.0,7.0,78,-99.99,,,-99.99,,2013-02-21 07:11:00,